Location: Gälforsberget
(66.6500°N, 22.4167°E)
Time: 10:59:19
(UTC+00:00)

MetOp-A - Pass Details

Date: 11 April 2026
Orbit: 520 x 765 km, 98.3° (Epoch: 10 May)

Event Time Altitude Azimuth Distance (km) Brightness Sun altitude
Exits shadow 21:13:40 19° 144° (SE) 1,701 5.2 -13.5°
Maximum altitude 21:17:14 73° 63° (ENE) 788 4.1 -13.6°
Drops below altitude 10° 21:22:21 10° 339° (NNW) 2,314 8.0 -13.7°
Sets 21:24:42 0° 338° (NNW) 3,250 9.2 -13.8°
